DW5212 Weather Reports


time (UTC)temp
C
wind
direction
speed
KPH
gust
KPH
rain 1hr
cm
rain 24hr
cm
rain mn
cm
humidity
%
barometer
mb
20210920055809 21 5 0.0 0.0 0.00 0.00 0.00 94 1013.0
20210920055108 21 355 0.0 0.0 0.00 0.00 0.00 94 1013.1
20210920054414 21 265 0.0 0.0 0.00 0.00 0.00 94 1013.0
20210920053708 21 265 0.0 0.0 0.00 0.00 0.00 94 1013.0
20210920053011 21 265 0.0 0.0 0.00 0.00 0.00 94 1013.1
20210920052308 21 265 0.0 0.0 0.00 0.00 0.00 94 1013.2
20210920051610 21 260 0.0 0.0 0.00 0.00 0.00 94 1013.1
20210920050909 21 260 0.0 0.0 0.00 0.00 0.00 93 1013.1
20210920050210 21 260 0.0 0.0 0.00 0.00 0.00 93 1013.2
20210920045509 21 260 0.0 0.0 0.00 0.00 0.00 93 1013.2
20210920044810 21 260 0.0 0.0 0.00 0.00 0.00 93 1013.1
20210920044110 21 259 0.0 0.0 0.00 0.00 0.00 93 1013.1
20210920043410 21 260 0.0 0.0 0.00 0.00 0.00 93 1013.2
20210920042708 22 260 0.0 0.0 0.00 0.00 0.00 93 1013.2
20210920042014 22 260 0.0 0.0 0.00 0.00 0.00 93 1013.2
20210920041309 22 260 0.0 0.0 0.00 0.00 0.00 93 1013.1
20210920040611 22 260 0.0 0.0 0.00 0.00 0.00 93 1013.2
20210920035908 22 260 0.0 0.0 0.00 0.00 0.00 93 1013.3
20210920035208 22 259 0.0 0.0 0.00 0.00 0.00 93 1013.2
20210920034508 22 260 0.0 0.0 0.00 0.00 0.00 92 1013.2
20210920033810 22 260 0.0 0.0 0.00 0.00 0.00 92 1013.1
20210920033107 22 260 0.0 0.0 0.00 0.00 0.00 92 1013.0
20210920032409 22 260 0.0 0.0 0.00 0.00 0.00 92 1013.2
20210920031708 22 260 0.0 0.0 0.00 0.00 0.00 92 1013.2
20210920031009 22 260 0.0 0.0 0.00 0.00 0.00 92 1013.1
20210920030308 22 260 0.0 0.0 0.00 0.00 0.00 92 1013.2
20210920025611 22 260 0.0 0.0 0.00 0.00 0.00 92 1013.2
20210920024909 22 259 0.0 0.0 0.00 0.00 0.00 92 1012.9
20210920024208 22 260 0.0 0.0 0.00 0.00 0.00 91 1012.9
20210920023507 22 260 0.0 0.0 0.00 0.00 0.00 91 1012.9
20210920022808 22 260 0.0 0.0 0.00 0.00 0.00 91 1012.8
20210920022108 22 260 0.0 0.0 0.00 0.00 0.00 91 1012.7
20210920021407 22 259 0.0 0.0 0.00 0.00 0.00 91 1012.7
20210920020709 23 260 0.0 0.0 0.00 0.00 0.00 91 1012.8
20210920020011 23 259 0.0 0.0 0.00 0.00 0.00 91 1012.7
20210920015309 23 260 0.0 0.0 0.00 0.00 0.00 91 1012.6
20210920014608 23 260 0.0 0.0 0.00 0.00 0.00 91 1012.5
20210920013909 23 260 0.0 0.0 0.00 0.00 0.00 91 1012.4
20210920013210 23 260 0.0 0.0 0.00 0.00 0.00 91 1012.3
20210920012507 23 260 0.0 0.0 0.00 0.00 0.00 91 1012.2
20210920011807 23 259 0.0 0.0 0.00 0.00 0.00 91 1012.0
20210920011110 23 261 0.0 0.0 0.00 0.00 0.00 91 1012.0
20210920010409 23 260 0.0 0.0 0.00 0.00 0.00 91 1012.0
20210920005707 23 259 0.0 0.0 0.00 0.00 0.00 91 1011.9
20210920005010 23 260 0.0 0.0 0.00 0.00 0.00 91 1011.9
20210920004309 23 260 0.0 0.0 0.00 0.00 0.00 91 1011.9
20210920003610 23 259 0.0 0.0 0.00 0.00 0.00 92 1011.8
20210920002908 23 260 0.0 0.0 0.00 0.00 0.00 92 1011.6
20210920002207 23 260 0.0 0.0 0.00 0.00 0.00 92 1011.6
20210920001509 23 260 0.0 0.0 0.00 0.00 0.00 92 1011.5
20210920000813 23 259 0.0 0.0 0.00 0.00 0.00 91 1011.5
20210920000107 24 259 0.0 0.0 0.00 0.00 0.00 91 1011.4
20210919235407 24 260 0.0 0.0 0.00 0.00 0.00 90 1011.5
20210919234707 24 260 0.0 0.0 0.00 0.00 0.00 89 1011.5
20210919234011 24 260 0.0 0.0 0.00 0.00 0.00 88 1011.3
20210919233309 24 261 0.0 0.0 0.00 0.00 0.00 88 1011.2
20210919232608 25 260 0.0 1.6 0.00 0.00 0.00 86 1011.4
20210919231910 25 266 0.0 1.6 0.00 0.00 0.00 87 1011.5
20210919231212 25 266 0.0 1.6 0.00 0.00 0.00 86 1011.4
20210919230509 25 132 0.0 3.2 0.00 0.00 0.00 85 1011.5
20210919225809 25 130 0.0 4.8 0.00 0.00 0.00 83 1011.5
20210919225108 25 152 1.6 4.8 0.00 0.00 0.00 82 1011.5
20210919224411 26 185 1.6 8.0 0.00 0.00 0.00 82 1011.7
20210919223709 25 204 0.0 4.8 0.00 0.00 0.00 83 1011.4
20210919223010 26 123 1.6 8.0 0.00 0.00 0.00 83 1011.4
20210919222308 26 252 3.2 6.4 0.00 0.00 0.00 83 1011.6
20210919221612 26 220 0.0 4.8 0.00 0.00 0.00 84 1011.6
20210919220908 26 263 0.0 6.4 0.00 0.00 0.00 83 1011.6
20210919220210 26 162 3.2 6.4 0.00 0.00 0.00 82 1011.5
20210919215508 26 112 0.0 6.4 0.00 0.00 0.00 82 1011.4
20210919214809 26 198 1.6 4.8 0.00 0.00 0.00 83 1011.5
20210919214108 26 50 1.6 4.8 0.00 0.00 0.00 82 1011.6
20210919213407 26 111 1.6 6.4 0.00 0.00 0.00 82 1011.7
20210919212710 26 173 1.6 9.7 0.00 0.00 0.00 80 1011.6
20210919212008 27 155 3.2 11.3 0.00 0.00 0.00 80 1011.7
20210919211309 27 136 3.2 9.7 0.00 0.00 0.00 81 1012.0
20210919210608 27 136 3.2 8.0 0.00 0.00 0.00 81 1012.0
20210919205909 27 92 1.6 4.8 0.00 0.00 0.00 83 1012.0
20210919205209 27 102 0.0 4.8 0.00 0.00 0.00 81 1012.0
20210919204507 27 174 3.2 8.0 0.00 0.00 0.00 80 1012.0
20210919203809 27 15 1.6 3.2 0.00 0.00 0.00 80 1012.2
20210919203108 27 132 0.0 4.8 0.00 0.00 0.00 79 1012.2
20210919202411 27 92 1.6 4.8 0.00 0.00 0.00 75 1012.3
20210919201708 28 185 1.6 9.7 0.00 0.00 0.00 72 1012.4
20210919201008 29 199 1.6 9.7 0.00 0.00 0.00 70 1012.5
20210919200307 29 126 3.2 6.4 0.00 0.00 0.00 71 1012.3
20210919195610 29 142 0.0 4.8 0.00 0.00 0.00 74 1012.3
20210919194909 28 226 1.6 6.4 0.00 0.00 0.00 72 1012.3
20210919194209 28 28 1.6 11.3 0.00 0.00 0.00 73 1012.4
20210919193517 28 159 3.2 11.3 0.00 0.00 0.00 72 1012.6
20210919192817 29 126 1.6 4.8 0.00 0.00 0.00 74 1012.6
20210919192108 29 106 0.0 8.0 0.00 0.00 0.00 74 1012.7
20210919191408 28 142 1.6 8.0 0.00 0.00 0.00 75 1013.1
20210919190708 29 203 4.8 9.7 0.00 0.00 0.00 72 1013.2
20210919190011 29 69 3.2 4.8 0.00 0.00 0.00 73 1013.3
20210919185307 28 213 1.6 8.0 0.00 0.00 0.00 79 1013.4
20210919184608 27 217 4.8 8.0 0.00 0.00 0.00 79 1013.6
20210919183907 27 122 3.2 4.8 0.00 0.00 0.00 84 1013.6
20210919183210 26 84 1.6 3.2 0.00 0.00 0.00 84 1013.6
20210919182509 27 115 0.0 6.4 0.00 0.00 0.00 84 1013.7
20210919181809 27 210 1.6 6.4 0.00 0.00 0.00 82 1013.7
20210919181107 27 182 1.6 6.4 0.00 0.00 0.00 81 1013.7
20210919180410 27 68 3.2 6.4 0.00 0.00 0.00 79 1013.9
20210919175708 28 184 1.6 4.8 0.00 0.00 0.00 75 1013.8
20210919175008 28 171 1.6 4.8 0.00 0.00 0.00 77 1013.8
20210919174308 28 139 3.2 4.8 0.00 0.00 0.00 76 1014.1
20210919173610 28 94 0.0 6.4 0.00 0.00 0.00 73 1014.2
20210919172909 29 165 4.8 12.9 0.00 0.00 0.00 71 1014.4
20210919172207 29 54 3.2 6.4 0.00 0.00 0.00 76 1014.6
20210919171508 29 128 1.6 6.4 0.00 0.00 0.00 77 1014.6
20210919170811 30 159 1.6 6.4 0.00 0.00 0.00 78 1014.6
20210919170109 28 73 1.6 6.4 0.00 0.00 0.00 77 1014.6
20210919165408 29 339 0.0 4.8 0.00 0.00 0.00 80 1014.8
20210919164708 28 355 0.0 4.8 0.00 0.00 0.00 82 1014.9
20210919164009 27 175 1.6 4.8 0.00 0.00 0.00 82 1015.0
20210919163309 26 196 0.0 0.0 0.00 0.00 0.00 88 1015.1
20210919162608 26 196 0.0 0.0 0.00 0.00 0.00 90 1015.2
20210919161909 26 196 0.0 0.0 0.00 0.00 0.00 89 1015.5
20210919161208 26 259 0.0 0.0 0.00 0.00 0.00 88 1015.5
20210919160507 26 259 0.0 0.0 0.00 0.00 0.00 88 1015.4
20210919155808 26 307 0.0 0.0 0.00 0.00 0.00 85 1015.4
20210919155111 26 277 0.0 0.0 0.00 0.00 0.00 88 1015.5
20210919154427 26 69 0.0 0.0 0.00 0.00 0.00 89 1015.6
20210919153710 26 69 0.0 0.0 0.00 0.00 0.00 87 1015.7
20210919153009 26 105 0.0 0.0 0.00 0.00 0.00 88 1015.6
20210919152307 26 14 0.0 0.0 0.00 0.00 0.00 86 1015.6
20210919151608 27 124 0.0 3.2 0.00 0.00 0.00 86 1015.6
20210919150907 26 61 1.6 3.2 0.00 0.00 0.00 87 1015.6
20210919150208 26 120 0.0 1.6 0.00 0.00 0.00 91 1015.5
20210919145507 25 319 0.0 3.2 0.00 0.00 0.00 92 1015.4
20210919144807 25 210 0.0 0.0 0.00 0.00 0.00 93 1015.4
20210919144106 26 210 0.0 1.6 0.00 0.00 0.00 95 1015.3
20210919143408 25 119 0.0 0.0 0.00 0.00 0.00 95 1015.2
20210919142707 24 181 0.0 0.0 0.00 0.00 0.00 96 1015.2
20210919142008 24 67 0.0 0.0 0.00 0.00 0.00 97 1015.1
20210919141308 24 67 0.0 0.0 0.00 0.00 0.00 97 1015.2
20210919140607 23 67 0.0 1.6 0.00 0.00 0.00 97 1015.3
20210919135910 23 57 1.6 3.2 0.00 0.00 0.00 97 1015.1
20210919135208 23 57 1.6 4.8 0.00 0.00 0.00 97 1015.2
20210919134508 23 101 0.0 0.0 0.00 0.00 0.00 97 1015.0
20210919133808 23 138 0.0 0.0 0.00 0.00 0.00 97 1015.0
20210919133109 23 138 0.0 0.0 0.00 0.00 0.00 97 1015.2
20210919132407 23 139 0.0 0.0 0.00 0.00 0.00 97 1015.0
20210919131707 23 139 0.0 0.0 0.00 0.00 0.00 97 1014.9
20210919131009 22 138 0.0 0.0 0.00 0.00 0.00 97 1014.9
20210919130308 22 138 0.0 0.0 0.00 0.00 0.00 97 1014.9
20210919125609 22 138 0.0 0.0 0.00 0.00 0.00 97 1014.9
20210919124909 22 152 0.0 0.0 0.00 0.00 0.00 97 1014.9
20210919124207 22 152 0.0 0.0 0.00 0.00 0.00 97 1014.9
20210919123507 22 153 0.0 0.0 0.00 0.00 0.00 97 1014.6
20210919122809 22 152 0.0 0.0 0.00 0.00 0.00 97 1014.6
20210919122107 22 152 0.0 0.0 0.00 0.00 0.00 96 1014.5
20210919121416 22 152 0.0 0.0 0.00 0.00 0.00 96 1014.4
20210919120707 22 153 0.0 0.0 0.00 0.00 0.00 96 1014.4
20210919120017 22 152 0.0 0.0 0.00 0.00 0.00 95 1014.4
20210919115308 21 152 0.0 0.0 0.00 0.00 0.00 95 1014.2
20210919114606 21 152 0.0 0.0 0.00 0.00 0.00 95 1014.3
20210919113907 21 152 0.0 0.0 0.00 0.00 0.00 95 1014.1
20210919113208 21 90 0.0 0.0 0.00 0.00 0.00 95 1014.3
20210919112507 21 90 0.0 0.0 0.00 0.00 0.00 95 1014.3
20210919111807 22 90 0.0 0.0 0.00 0.00 0.00 95 1014.1
20210919111107 22 90 0.0 0.0 0.00 0.00 0.00 95 1014.1
20210919110409 22 90 0.0 0.0 0.00 0.00 0.00 95 1014.1
20210919105709 22 90 0.0 0.0 0.00 0.00 0.00 95 1014.1
20210919105008 22 90 0.0 0.0 0.00 0.00 0.00 95 1014.0
20210919104309 22 90 0.0 0.0 0.00 0.00 0.00 95 1014.1
20210919103608 22 90 0.0 0.0 0.00 0.00 0.00 95 1014.1
20210919102906 22 90 0.0 0.0 0.00 0.00 0.00 95 1014.1
20210919102206 22 90 0.0 0.0 0.00 0.00 0.00 95 1014.1
20210919101507 22 91 0.0 0.0 0.00 0.00 0.00 95 1014.1
20210919100809 22 90 0.0 0.0 0.00 0.00 0.00 95 1014.0
20210919100106 22 90 0.0 0.0 0.00 0.00 0.00 95 1014.0
20210919095408 22 90 0.0 0.0 0.00 0.00 0.00 94 1014.1
20210919094706 22 123 0.0 0.0 0.00 0.00 0.00 94 1014.2
20210919094010 22 122 0.0 0.0 0.00 0.00 0.00 94 1014.0
20210919093306 22 122 0.0 0.0 0.00 0.00 0.00 95 1014.0
20210919092608 22 123 0.0 0.0 0.00 0.00 0.00 94 1014.0
20210919091907 22 122 0.0 0.0 0.00 0.00 0.00 94 1014.0
20210919091212 22 122 0.0 0.0 0.00 0.00 0.00 94 1013.8
20210919090507 22 122 0.0 0.0 0.00 0.00 0.00 94 1013.8
20210919085807 22 122 0.0 0.0 0.00 0.00 0.00 94 1013.7
20210919085108 22 123 0.0 0.0 0.00 0.00 0.00 94 1014.0
20210919084409 22 123 0.0 0.0 0.00 0.00 0.00 94 1014.0
20210919083707 22 122 0.0 0.0 0.00 0.00 0.00 94 1013.9
20210919083009 23 123 0.0 0.0 0.00 0.00 0.00 94 1014.0
20210919082307 23 123 0.0 0.0 0.00 0.00 0.00 94 1014.0
20210919081611 23 122 0.0 0.0 0.00 0.00 0.00 94 1014.0
20210919080907 23 123 0.0 0.0 0.00 0.00 0.00 94 1014.2
20210919080207 23 122 0.0 0.0 0.00 0.00 0.00 94 1014.2
20210919075509 23 123 0.0 0.0 0.00 0.00 0.00 94 1014.3
20210919074809 23 123 0.0 0.0 0.00 0.00 0.00 94 1014.4
20210919074108 23 123 0.0 0.0 0.00 0.00 0.00 94 1014.4
20210919073409 23 122 0.0 0.0 0.00 0.00 0.00 94 1014.3
20210919072709 23 122 0.0 0.0 0.00 0.00 0.00 94 1014.4
20210919072011 23 117 0.0 0.0 0.00 0.00 0.00 94 1014.3
20210919071311 23 116 0.0 0.0 0.00 0.00 0.00 94 1014.2
20210919070610 23 118 0.0 0.0 0.00 0.00 0.00 94 1014.4
20210919065909 23 117 0.0 0.0 0.00 0.00 0.00 94 1014.4
20210919065209 23 59 0.0 1.6 0.00 0.00 0.00 94 1014.4
20210919064510 23 59 0.0 1.6 0.00 0.00 0.00 94 1014.6
20210919063809 23 66 0.0 0.0 0.00 0.00 0.00 94 1014.6
20210919063108 23 65 0.0 0.0 0.00 0.00 0.00 94 1014.5
20210919062410 23 66 0.0 0.0 0.00 0.00 0.00 94 1014.6
20210919061709 23 66 0.0 0.0 0.00 0.00 0.00 94 1014.5
20210919061011 23 66 0.0 0.0 0.00 0.00 0.00 94 1014.6